Regional Weather Roundup
Issued by NWS

Home | Current Version | Previous Version | Graphics & Text | Print | Product List | Glossary On
Versions: 1 2 3 4 5 6 7 8 9 10 11 12 13 14 15 16 17 18 19 20 21 22 23 24 25 26 27 28 29 30 31 32 33 34 35 36 37 38 39 40 41 42 43 44 45 46 47 48 49 50
000
ASUS43 KOAX 181702
RWRNE

WEATHER ROUNDUP FOR NEBRASKA
NATIONAL WEATHER SERVICE OMAHA NE
1200 PM CDT FRI APR 18 2014

NOTES: SATELLITE DATA IS BEING USED TO AUGMENT CLOUD COVER ABOVE
       12000 FEET.
       "FAIR" INDICATES FEW OR NO CLOUDS BELOW 12,000 FEET WITH NO
       SIGNIFICANT WEATHER AND/OR OBSTRUCTIONS TO VISIBILITY.

  * THESE STATIONS DO NOT REPORT WEATHER SUCH AS RAIN...SNOW OR FOG.

NEZ001>004-019>022-054>056-181800-
NEBRASKA PANHANDLE

CITY           SKY/WX    TMP DP  RH WIND       PRES   REMARKS
SCOTTSBLUFF    PTSUNNY   66  41  40 SE9       29.90F
ALLIANCE       PTSUNNY   67  40  37 S16       29.89F
CHADRON        PTSUNNY   73  39  29 S15G21    29.81F
KIMBALL        CLOUDY    68  27  21 S18       29.94S
SIDNEY         PTSUNNY   64  37  36 S13       29.96S
$$

NEZ057>060-069>072-079>082-181800-
SOUTHWEST NEBRASKA

CITY           SKY/WX    TMP DP  RH WIND       PRES   REMARKS
NORTH PLATTE   MOSUNNY   61  39  44 S20G25    30.02F
IMPERIAL       SUNNY     62  39  42 S17       30.00F
LEXINGTON      MOSUNNY   59  43  54 S21G26    30.08S
MCCOOK         SUNNY     63  41  44 S20G29    30.06F
OGALLALA       SUNNY     64  38  39 S13G18    29.97F
$$

NEZ005>010-023>029-035>040-094-181800-
NORTH CENTRAL NEBRASKA

CITY           SKY/WX    TMP DP  RH WIND       PRES   REMARKS
VALENTINE      PTSUNNY   66  36  32 S29G36    29.89F
AINSWORTH      MOSUNNY   64  37  36 S29G36    29.94S
BROKEN BOW     MOSUNNY   58  39  49 S20G31    30.05S
O`NEILL        SUNNY     62  36  37 S26G35    30.04S
ORD            SUNNY     61  40  45 S21G31    30.06F
THEDFORD       MOSUNNY   65  35  32 S21G32    29.96F
$$

NEZ041-046>049-061>064-073>077-083>087-181800-
SOUTH CENTRAL NEBRASKA

CITY           SKY/WX    TMP DP  RH WIND       PRES   REMARKS
GRAND ISLAND   SUNNY     61  40  45 S18G28    30.14F
AURORA         SUNNY     60  40  48 S20G25    30.16F
HASTINGS       SUNNY     60  39  45 S16G26    30.14F
HEBRON         SUNNY     60  38  43 S13G21    30.21F
HOLDREGE       MOSUNNY   58  41  53 S22G30    30.10F
KEARNEY *      MOSUNNY   61  43  51 S26G33    30.11F
YORK           SUNNY     59  39  47 S20       30.18F
$$

NEZ011>018-030>034-042>045-181800-
NORTHEAST NEBRASKA

CITY           SKY/WX    TMP DP  RH WIND       PRES   REMARKS
NORFOLK        SUNNY     60  36  40 S21G32    30.14F
ALBION         SUNNY     60  39  46 S22G31    30.12F
BLAIR          SUNNY     55  33  42 SE16G22   30.24F
COLUMBUS *     SUNNY     59  37  44 S17G24    30.19F
FREMONT        SUNNY     59  31  34 SE21G26   30.22F
TEKAMAH        SUNNY     60  32  34 SE17G28   30.23F HAZE
$$

NEZ050>053-065>068-078-088>093-181800-
SOUTHEAST NEBRASKA

CITY           SKY/WX    TMP DP  RH WIND       PRES   REMARKS
LINCOLN        SUNNY     62  35  36 S17       30.23F HAZE
OMAHA EPPLEY   SUNNY     57  33  40 SE20      30.26F
BEATRICE       SUNNY     60  35  39 S10       30.23F
FALLS CITY     SUNNY     59  37  44 SE10      30.27F
NEBRASKA CITY  SUNNY     57  34  41 SE12      30.27F
PLATTSMOUTH    SUNNY     58  31  36 SE16      30.26F
$$

NEZ044-045-051>053-067-181800-
OMAHA AREA

CITY           SKY/WX    TMP DP  RH WIND       PRES   REMARKS
OMAHA EPPLEY   SUNNY     57  33  40 SE20      30.26F
BLAIR          SUNNY     55  33  42 SE16G22   30.24F
FREMONT        SUNNY     59  31  34 SE21G26   30.22F
MILLARD        SUNNY     56  33  42 SE15      30.25F
OFFUTT AFB     SUNNY     58  36  43 SE14G21   30.26F
PLATTSMOUTH    SUNNY     58  31  36 SE16      30.26F
WAHOO          FAIR      59  31  35 SE21G28   30.22F
$$



USA.gov is the U.S. government's official web portal to all federal, state and local government web resources and services.